Weather Roundup
Issued by NWS Chicago, IL

Home | Current Version | Previous Version | Text Only | Print | Product List | Glossary On
Versions: 1 2 3 4 5 6 7 8 9 10 11 12 13 14 15 16 17 18 19 20 21 22 23 24 25 26 27 28 29 30 31 32 33 34 35 36 37 38 39 40 41 42 43 44 45 46 47 48 49 50
000
NZUS59 KLOT 290621
HRRLOT

CHICAGO AREA WEATHER ROUNDUP
NATIONAL WEATHER SERVICE CHICAGO/ROMEOVILLE IL
100 AM CDT FRI MAY 29 2015

NOTE: "FAIR" INDICATES FEW OR NO CLOUDS BELOW 12,000 FEET WITH NO
SIGNIFICANT WEATHER AND/OR OBSTRUCTIONS TO VISIBILITY.

* THESE STATIONS ARE NOT UNDER NWS QUALITY CONTROL. THEY ALSO MAY NOT
  REPORT WEATHER SUCH AS PRECIPITATION OR FOG.

ILZ005-006-012>014-019>023-290700-
NORTHEAST ILLINOIS

CITY           SKY/WX    TMP DP  RH WIND       PRES   REMARKS
OHARE          MOCLDY    65  55  70 SE5       30.05S
6HR MIN TEMP:  64; 6HR MAX TEMP:  79;

MIDWAY         MOCLDY    71  58  63 SE7       30.06R
6HR MIN TEMP:  69; 6HR MAX TEMP:  78;

AURORA         PTCLDY    65  55  70 SE6       30.05S
6HR MIN TEMP:  65; 6HR MAX TEMP:  81;

LANSING*       MOCLDY    70  55  59 S5        30.08R
JOLIET*        PTCLDY    69  57  64 S3        30.06S
WAUKEGAN       MOCLDY    60  53  77 SE5       30.06S
6HR MIN TEMP:  58; 6HR MAX TEMP:  68;

DUPAGE AIRPORT PTCLDY    66  55  67 CALM      30.05S
6HR MIN TEMP:  65; 6HR MAX TEMP:  80;

WHEELING       PTCLDY    63  55  75 CALM      30.07S
6HR MIN TEMP:  62; 6HR MAX TEMP:  77;

KANKAKEE*      CLOUDY    71  61  71 S6        30.08R
MORRIS*        PTCLDY    69  54  59 SE3       30.03F
LEWIS AIRPORT* PTCLDY    66  55  68 S8        30.06S
NORTHERLY IS     N/A     61  55  81 S1          N/A
$$

WIZ051-052-058>065-066-070>072-290700-
SOUTHEAST WISCONSIN

CITY           SKY/WX    TMP DP  RH WIND       PRES   REMARKS
MILWAUKEE      CLOUDY    61  53  75 SE3       30.07F
6HR MIN TEMP:  60; 6HR MAX TEMP:  72;

KENOSHA*       MOCLDY    61  53  75 SE6       30.07F
RACINE*        CLOUDY    62  52  69 SE6       30.09S
BURLINGTON     MOCLDY    57  53  85 CALM      30.07S
WAUKESHA       CLOUDY    63  52  67 SE6       30.08F
WEST BEND      CLOUDY    63  52  67 SE3       30.08S
$$

INZ001>003-010>013-019-020-290700-
NORTHWEST INDIANA

CITY           SKY/WX    TMP DP  RH WIND       PRES   REMARKS
GARY*          PTCLDY    71  59  64 SE6       30.08R
6HR MIN TEMP:  60; 6HR MAX TEMP:  72;

MICHIGAN CITY* NOT AVBL
RENSSELAER*    NOT AVBL
VALPARAISO     PTCLDY    69  58  67 SE5       30.10R
$$

LMZ740>746-290700-
SOUTHERN LAKE MICHIGAN

STATION/POSITION TIME  SKY/WX   TEMP WIND        PRES    VSBY
                                AIR  DIR/SP/G
                 (UTC)          (F)  (DEG/KT/KT) (MB)    (MI)
HARRISON CRIB    0600            62  150/  6/  9   N/A
BURNHAM HARBOR   0600            62  160/  3/  3   N/A
CALUMET HARBOR   NOT AVBL
BURNS HARBOR     0500            74  130/  8/ 13 1019.0S
MICHIGAN CITY    0600            71  120/  9/ 12   N/A
$$

ABBREVIATIONS USED IN REMARKS
   TC - TEMPERATURE IN CELSIUS
  WCI - WIND CHILL INDEX
   HX - HEAT INDEX
  VSB - VISIBILITY
$$



USA.gov is the U.S. government's official web portal to all federal, state and local government web resources and services.